Погода в Омолоне

Погода в Омолоне : погода сейчас, прогноз погоды и архив. Всё, что Вы хотите узнать о погоде в Омолоне!

Поиск расширенной информации на нашем сайте:

Другие новости

Новости СМИ2

Главная страница сайта

Новости сайта

03.07.2017

Напоминаем, что на нашем специализированном сайте Метеоцентр.Азия вы можете получить высокодетализированные автоматические прогнозы погоды по пунктам России, СНГ и мира в авиационном формате (включающие направление и скорость ветра, видимость, явления погоды, количество и форму облачности, нижнюю и верхнюю границу облачности).


Погода в Омолоне - сегодня

Время (UTC), дата Ветер
(°,м/с) 
Видим.   Явления Облачность Т
(°С)
Тd
(°С)
f(%) Тe
(°С)
Pmin
(гПа)
dP
(гПа)
Po
(мм)
O2
(г/м3)
Тmin Tmax R s Состояние
почвы
06 17.11.18 тихо () {02}  50000 м    8/0 верхняя 
[Ci fib]
-30.9 -34.2 73 -31  1022.3  0.2  739  338           
12 17.11.18 тихо () {01}  50000 м    8/0 верхняя 
[Ci fib]
-33.6 -37.2 70 -34  1024.6  0.7  740  342           
15 17.11.18 тихо () {01}  50000 м    8/0 верхняя 
[Ci fib]
-34.3 -37.9 70 -34  1025  0.4  741  343           
18 17.11.18 тихо () {01}  50000 м    9/0 верхняя 
[Ci fib]
-33.8 -37.3 71 -34  1025.6  0.6  741  343           
21 17.11.18 тихо () {01}  50000 м    9/0 средняя, верхняя 
[Ac trans|Ci fib]
-30.1 -33.3 74 -30  1025.2  0.3  741  338  -34.5      16  равномерный
сухой снег
100% 
03 18.11.18 090 (В) 1{01}  50000 м    10/5 600 м средняя 
[Sc|Ac As]
-28.3 -31.5 74 -29  1024.4  -0.7  741  335           
06 18.11.18 060 (СВ) 1{01}  50000 м    10/5 600 м средняя 
[Sc|Ac As]
-28.7 -31.7 75 -29  1024.5  -0.1  741  335           
15 18.11.18 тихо () {01}  24000 м  снежные кристаллы  10/5 600 м средняя, верхняя 
[Sc|Ac trans|Cs]
-30.1 -33.2 74 -30  1023.6  -0.4  740  337           
18 18.11.18 тихо () {01}  23000 м  снежные кристаллы  10/6 600 м средняя, верхняя 
[Sc|Ac trans|Cs]
-30.2 -33.5 73 -30  1023.4  -0.2  740  337           
21 18.11.18 030 (СВ) 1{01}  25000 м  снежные кристаллы  10/6 600 м средняя, верхняя 
[Sc|Ac trans|Cs]
-29 -31.9 76 -30  1023.6  0.3  740  336  -30.6    0.0  16  равномерный
сухой снег
100% 
03 19.11.18 030 (СВ) 1{01}  50000 м    4/0 средняя, верхняя 
[Ac lent|Ci fib]
-29.8 -33.1 73 -31  1023.2  -0.7  740  337           
06 19.11.18 тихо () {01}  50000 м    3/0 верхняя 
[Ci fib]
-33.3 -36.9 70 -33  1023.9  0.2  740  342           
12 19.11.18 тихо () {01}  50000 м    ясно 
-35.1 -38.9 68 -35  1023.8  -0.4  740  344           
15 19.11.18 тихо () {01}  50000 м    ясно 
-35.9 -39.8 67 -36  1023.6  -0.4  740  345           
18 19.11.18 тихо () {01}  50000 м    ясно 
-35.5 -39.3 68 -36  1023  -0.6  739  344           
21 19.11.18 тихо () {02}  50000 м    9/3 1000 м средняя, верхняя 
[Sc|Ac trans|Cs]
-31.4 -34.8 72 -31  1021.9  -0.3  739  338  -35.9      16  равномерный
сухой снег
100% 
03 20.11.18 тихо () {01}  19000 м  снежные кристаллы  10/10 600 м 
[Sc]
-27.6 -30.7 75 -28  1020.4  -0.6  738  333           
06 20.11.18 тихо () {01}  50000 м  {снег}  10/10 600 м 
[Sc]
-26.4 -29.4 76 -26  1020.1  738  331           
15 20.11.18 тихо () {01}  16000 м  слаб. снег  10/5 1000 м средняя, верхняя 
[Sc|Ac trans|Cs]
-24.3 -27 78 -24  1019.9  -0.3  738  328           
18 20.11.18 тихо () {01}  20000 м  снежные кристаллы  10/6 600 м средняя, верхняя 
[Sc|Ac trans|Cs]
-23.9 -26.6 78 -24  1020  0.1  738  328           
21 20.11.18 тихо () {01}  50000 м  {снег}  10/8 600 м средняя 
[Sc|Ac trans]
-23 -25.5 80 -23  1020.4  0.5  739  327  -25.5    0.0  17  равномерный
сухой снег
100% 
03 21.11.18 100 (В) 1{02}  17000 м  слаб. снег  10/8 600 м средняя, верхняя 
[Sc|Ac trans|Cs]
-20.7 -23.6 78 -21  1020  -0.1  739  324           
06 21.11.18 140 (ЮВ) 1{02}  50000 м  {снег}  8/0 средняя, верхняя 
[Ac trans|Ci fib]
-21.8 -24.2 81 -22  1020.8  0.7  739  325           
12 21.11.18 150 (ЮВ) 1{03}  50000 м    6/0 средняя, верхняя 
[Ac trans|Ci fib]
-25.1 -27.8 78 -26  1022.6  0.4  740  330           
15 21.11.18 160 (Ю) 2{04}  50000 м    6/0 средняя, верхняя 
[Ac trans|Ci fib]
-25.8 -28.7 77 -29  1023.1  0.4  740  331           
Время (UTC), дата Ветер
(°,м/с) 
Видим.   Явления Облачность Т
(°С)
Тd
(°С)
f(%) Тe
(°С)
Pmin
(гПа)
dP
(гПа)
Po
(мм)
O2
(г/м3)
Тmin Tmax R s Состояние
почвы

Для получения пояснительной информации подведите курсор к названию столбца.

ПОГОДА в Омолоне - архив

Всё, что Вы хотите узнать о погоде в Омолоне - удобно и подробно!

Выберите нужную дату (начиная с 1 января 2015* года) и нажмите кнопку "Найти".
Будут отображены архивные сводки погоды по пункту Омолон, начиная с указанной даты.


Отображать данные в формате CSV (для использования в таблицах Excel)


Внимание! Наш архив погоды предназначен исключительно для личного некоммерческого использования в познавательных целях. Если Вам необходимы официальные справки о состоянии погоды (для производственных, юридических, коммерческих и т.п. целей), обращайтесь в органы Росгидромета.

*Примечание: данная дата относится к архиву по метеостанциям СССР (Россия, СНГ, Балтия).
Архив по метеостанциям Зарубежной Европы и Азии (кроме Китая) хранится 10 дней, по другим регионам земного шара (Китай, Африка, Америка, Австралия, Океания) - 1 день.

Омолон - район местоположения метеостанции


Название, широта, долгота, высота метеостанции:
Омолон 65.2°ш. 160.5°д. 264 м над ур. моря [Российская Федерация]

Дополнительная информация

В oтличие oт бoльшинства пoгoдных сайтoв мы публикуем пoдрoбную метеoинфoрмацию в детальнoм прoфессиoнальнoм фoрмате.

Характеристики температуры и влажнoсти вoздуха измеряются на высoте 2 м в тени вдали oт зданий и деревьев.
Скoрoсть ветра измеряется на высoте 10 м (на урoвне рoста челoвека скoрoсть ветра ниже в 1.5-2 раза). Если метеoстанция нахoдится в гoрoде или в лесу, тo скoрoсть ветра занижена на 2-4 м/с пo сравнению с oткрытым местoм. Скoрoсть ветра над акватoриями крупных рек и oзёр, а также на вершинах хoлмoв на 2-5 м/с выше, чем в oбычных услoвиях.
Атмoсфернoе давление в разных тoчках местнoсти мoжет значительнo oтличаться oт давления на метеoстанции, в зависимoсти oт услoвий рельефа (при пoдъёме на 10 м давление пoнижается примернo на 1 мм рт.ст.).